Погода в Тарусе

Россия / Калужская область     54°43′44″N   37°10′46″E
темп.,
°C
ветер,
м/с
пор.,
м/с
влажн.,
%
обл.,
%
осадки,
мм/ч
давл.,
гПа
погр.,
м
25 февраля, чт
чт2500:00−11юз4894100 0.1 1028296
03:00−9юз51095100 0.3 1026281
06:00−5зюз61494100 0.3 1020473
09:00+1зюз81598100 0.9 1016513
12:00+3з514100100 0.4 1015411
15:00+2з411100100 0.4 1015257
18:00+2з49100100 0.1 1015212
21:00+2зсз38100100 0.2 1016206
26 февраля, пт
пт2600:00+2зюз48100100 0.1 1015198
03:00+2з513100100 1.0 1014324
06:00+2з61299100 0.1 1012337
09:00+2зюз61398100 0.1 1010403
12:00+2з71499100 0.1 1008544
15:00+3з716100100 0.2 1007463
18:00+2з61592100 0.1 1006672
21:00+2з61490100 0.1 1007778
27 февраля, сб
сб2700:00+1з61389100 0.0 1005642
03:00+1з61394100 0.1 1005627
06:000з51293100 0.0 1003554
09:000зсз6129799 0.1 1004601
12:000сз6119999 0.2 1005673
15:00+1ссз61189100 0.3 1007892
18:00−3с41088100 0.0 1009433
21:00−6с4109190 0.0 1012552
28 февраля, вс
вс2800:00−8с499398 0.0 1014521
03:00−8ссз389395 0.0 1016424
06:00−7ссз499489 0.1 1017504
09:00−6с499391 0.3 1018547
12:00−4ссз4788100 0.1 1018681
15:00−3ссз5886100 0.1 1019878
18:00−4ссз3793100 0.1 1019336
21:00−5ссз379299 0.2 1022276
1 марта, пн
пн100:00−5с379498 0.1 1023416
03:00−7с229498 0.1 102424
06:00−7с129693 0.0 102521
09:00−7юз119583 0.1 102742
12:00−3зюз248630 0.0 1027463
15:00−2з468560 0.0 1027648
18:00−4зюз369258 0.0 1026141
21:00−2зюз489376 0.0 1025322